Time,TemperatureF,DewpointF,PressureIn,WindDirection,WindDirectionDegrees,WindSpeedMPH,WindSpeedGustMPH,Humidity,HourlyPrecipIn,Conditions,Clouds,dailyrainin,SoftwareType,DateUTC
2013-01-16 00:03:00,35.7,24.7,30.23,NW,313,3.4,8.1,64,0.00,RA,,0.00,WeatherDisplay:10.37,2013-01-16 06:03:00,
2013-01-16 00:08:00,35.7,24.7,30.23,WNW,288,3.4,4.6,64,0.00,RA,,0.00,WeatherDisplay:10.37,2013-01-16 06:08:00,
2013-01-16 00:13:00,35.7,24.7,30.24,West,271,1.7,4.0,64,0.00,CLR,,0.00,WeatherDisplay:10.37,2013-01-16 06:13:00,
2013-01-16 00:18:00,35.6,24.6,30.24,NW,313,3.0,5.8,64,0.00,CLR,,0.00,WeatherDisplay:10.37,2013-01-16 06:18:00,
2013-01-16 00:23:00,35.6,24.6,30.24,North,360,0.5,4.0,64,0.00,CLR,,0.00,WeatherDisplay:10.37,2013-01-16 06:23:00,
2013-01-16 00:28:00,35.5,24.5,30.24,North,360,2.2,5.8,64,0.00,CLR,,0.00,WeatherDisplay:10.37,2013-01-16 06:28:00,
2013-01-16 00:33:00,35.5,24.5,30.25,WNW,287,3.9,8.1,64,0.00,CLR,,0.00,WeatherDisplay:10.37,2013-01-16 06:33:00,
2013-01-16 00:38:00,35.5,24.5,30.24,WNW,302,1.6,3.5,64,0.00,CLR,,0.00,WeatherDisplay:10.37,2013-01-16 06:38:00,
2013-01-16 00:43:00,35.4,24.4,30.24,North,351,1.4,4.6,64,0.00,CLR,,0.00,WeatherDisplay:10.37,2013-01-16 06:43:00,
2013-01-16 00:48:00,35.3,24.3,30.24,WSW,252,3.1,6.9,64,0.00,CLR,,0.00,WeatherDisplay:10.37,2013-01-16 06:48:00,
2013-01-16 00:53:00,35.3,24.3,30.24,NW,312,2.7,8.1,64,0.00,CLR,,0.00,WeatherDisplay:10.37,2013-01-16 06:53:00,
2013-01-16 00:58:00,35.3,24.3,30.24,NNW,333,2.7,5.8,64,0.00,CLR,,0.00,WeatherDisplay:10.37,2013-01-16 06:58:00,
2013-01-16 01:03:00,35.2,23.9,30.24,WNW,299,2.9,5.8,63,0.00,CLR,,0.00,WeatherDisplay:10.37,2013-01-16 07:03:00,
2013-01-16 01:08:00,35.1,23.8,30.24,NNW,348,3.6,8.1,63,0.00,CLR,,0.00,WeatherDisplay:10.37,2013-01-16 07:08:00,
2013-01-16 01:13:00,35.1,23.8,30.24,WNW,300,3.3,8.0,63,0.00,CLR,,0.00,WeatherDisplay:10.37,2013-01-16 07:13:00,
2013-01-16 01:18:00,35.0,23.7,30.24,North,351,3.5,4.6,63,0.00,CLR,,0.00,WeatherDisplay:10.37,2013-01-16 07:18:00,
2013-01-16 01:23:00,35.0,23.3,30.24,NNW,342,3.0,5.8,62,0.00,CLR,,0.00,WeatherDisplay:10.37,2013-01-16 07:23:00,
2013-01-16 01:28:00,34.8,23.1,30.25,North,355,4.0,4.6,62,0.00,CLR,,0.00,WeatherDisplay:10.37,2013-01-16 07:28:00,
2013-01-16 01:33:00,34.8,23.1,30.25,NW,320,1.5,3.5,62,0.00,CLR,,0.00,WeatherDisplay:10.37,2013-01-16 07:33:00,
2013-01-16 01:38:00,34.7,23.0,30.25,WNW,291,2.9,6.9,62,0.00,CLR,,0.00,WeatherDisplay:10.37,2013-01-16 07:38:00,
2013-01-16 01:43:00,34.6,22.5,30.25,NW,304,1.2,4.6,61,0.00,CLR,,0.00,WeatherDisplay:10.37,2013-01-16 07:43:00,
2013-01-16 01:48:00,34.5,22.0,30.25,NW,323,1.9,2.3,60,0.00,CLR,,0.00,WeatherDisplay:10.37,2013-01-16 07:48:00,
2013-01-16 01:53:00,34.4,21.9,30.25,NNW,327,2.5,6.9,60,0.00,CLR,,0.00,WeatherDisplay:10.37,2013-01-16 07:53:00,
2013-01-16 01:58:00,34.4,21.9,30.25,WNW,285,1.9,4.6,60,0.00,CLR,,0.00,WeatherDisplay:10.37,2013-01-16 07:58:00,
2013-01-16 02:03:00,34.3,21.4,30.25,NW,318,1.3,2.3,59,0.00,CLR,,0.00,WeatherDisplay:10.37,2013-01-16 08:03:00,
2013-01-16 02:08:00,34.2,21.4,30.25,North,5,1.1,6.9,59,0.00,CLR,,0.00,WeatherDisplay:10.37,2013-01-16 08:08:00,
2013-01-16 02:13:00,34.2,21.4,30.25,WNW,300,2.6,4.0,59,0.00,CLR,,0.00,WeatherDisplay:10.37,2013-01-16 08:13:00,
2013-01-16 02:18:00,34.1,21.3,30.25,WNW,296,0.4,3.5,59,0.00,CLR,,0.00,WeatherDisplay:10.37,2013-01-16 08:18:00,
2013-01-16 02:23:00,34.0,21.2,30.24,WNW,299,2.0,3.5,59,0.00,CLR,,0.00,WeatherDisplay:10.37,2013-01-16 08:23:00,
2013-01-16 02:28:00,33.9,21.1,30.24,NW,319,0.8,3.5,59,0.00,CLR,,0.00,WeatherDisplay:10.37,2013-01-16 08:28:00,
2013-01-16 02:33:00,33.9,21.1,30.24,NW,311,0.7,2.3,59,0.00,CLR,,0.00,WeatherDisplay:10.37,2013-01-16 08:33:00,
2013-01-16 02:38:00,33.8,20.6,30.24,NNW,343,0.9,2.3,58,0.00,CLR,,0.00,WeatherDisplay:10.37,2013-01-16 08:38:00,
2013-01-16 02:43:00,33.7,20.9,30.24,NNW,344,0.3,1.2,59,0.00,CLR,,0.00,WeatherDisplay:10.37,2013-01-16 08:43:00,
2013-01-16 02:48:00,33.6,20.8,30.25,NW,306,0.0,2.3,59,0.00,CLR,,0.00,WeatherDisplay:10.37,2013-01-16 08:48:00,
2013-01-16 02:53:00,33.5,20.7,30.24,WNW,292,0.5,0.0,59,0.00,CLR,,0.00,WeatherDisplay:10.37,2013-01-16 08:53:00,
2013-01-16 02:58:00,33.4,20.2,30.25,WNW,292,0.0,1.2,58,0.00,CLR,,0.00,WeatherDisplay:10.37,2013-01-16 08:58:00,
2013-01-16 03:03:00,33.3,20.5,30.24,NE,41,0.0,1.2,59,0.00,CLR,,0.00,WeatherDisplay:10.37,2013-01-16 09:03:00,
2013-01-16 03:08:00,33.2,20.4,30.25,NNE,31,0.0,0.0,59,0.00,CLR,,0.00,WeatherDisplay:10.37,2013-01-16 09:08:00,
2013-01-16 03:13:00,33.1,20.3,30.25,WNW,300,0.7,3.5,59,0.00,CLR,,0.00,WeatherDisplay:10.37,2013-01-16 09:13:00,
2013-01-16 03:18:00,33.0,20.2,30.25,WNW,300,0.0,0.0,59,0.00,CLR,,0.00,WeatherDisplay:10.37,2013-01-16 09:18:00,
2013-01-16 03:23:00,32.9,20.1,30.25,WNW,300,0.0,0.0,59,0.00,CLR,,0.00,WeatherDisplay:10.37,2013-01-16 09:23:00,
2013-01-16 03:28:00,32.8,20.0,30.25,WNW,300,0.1,2.0,59,0.00,CLR,,0.00,WeatherDisplay:10.37,2013-01-16 09:28:00,
2013-01-16 03:33:00,32.8,20.0,30.26,NW,315,0.0,1.2,59,0.00,CLR,,0.00,WeatherDisplay:10.37,2013-01-16 09:33:00,
2013-01-16 03:38:00,32.8,20.0,30.26,NW,315,0.2,2.0,59,0.00,CLR,,0.00,WeatherDisplay:10.37,2013-01-16 09:38:00,
2013-01-16 03:43:00,32.8,20.0,30.26,NW,315,0.0,0.0,59,0.00,CLR,,0.00,WeatherDisplay:10.37,2013-01-16 09:43:00,
2013-01-16 03:48:00,32.9,20.1,30.25,WNW,290,0.0,0.0,59,0.00,CLR,,0.00,WeatherDisplay:10.37,2013-01-16 09:48:00,
2013-01-16 03:53:00,32.9,20.1,30.25,NNW,331,0.0,0.0,59,0.00,CLR,,0.00,WeatherDisplay:10.37,2013-01-16 09:53:00,
2013-01-16 03:58:00,33.0,20.2,30.25,NW,310,0.0,2.3,59,0.00,CLR,,0.00,WeatherDisplay:10.37,2013-01-16 09:58:00,
2013-01-16 04:03:00,33.1,20.3,30.25,NNW,336,1.6,3.5,59,0.00,CLR,,0.00,WeatherDisplay:10.37,2013-01-16 10:03:00,
2013-01-16 04:08:00,33.2,20.0,30.25,NW,316,0.2,0.0,58,0.00,CLR,,0.00,WeatherDisplay:10.37,2013-01-16 10:08:00,
2013-01-16 04:13:00,33.4,20.2,30.26,West,281,0.1,2.3,58,0.00,CLR,,0.00,WeatherDisplay:10.37,2013-01-16 10:13:00,
2013-01-16 04:18:00,33.4,20.2,30.26,NW,326,0.8,2.3,58,0.00,CLR,,0.00,WeatherDisplay:10.37,2013-01-16 10:18:00,
2013-01-16 04:23:00,33.5,20.3,30.26,WNW,292,0.0,0.0,58,0.00,CLR,,0.00,WeatherDisplay:10.37,2013-01-16 10:23:00,
2013-01-16 04:28:00,33.6,20.4,30.26,WNW,303,0.1,1.2,58,0.00,CLR,,0.00,WeatherDisplay:10.37,2013-01-16 10:28:00,
2013-01-16 04:33:00,33.6,20.8,30.27,NW,306,0.0,0.0,59,0.00,CLR,,0.00,WeatherDisplay:10.37,2013-01-16 10:33:00,
2013-01-16 04:38:00,33.5,20.7,30.27,NW,306,0.0,0.0,59,0.00,CLR,,0.00,WeatherDisplay:10.37,2013-01-16 10:38:00,
2013-01-16 04:43:00,33.4,21.0,30.27,NW,306,0.0,0.0,60,0.00,CLR,,0.00,WeatherDisplay:10.37,2013-01-16 10:43:00,
2013-01-16 04:48:00,33.3,21.3,30.27,NW,306,0.0,0.0,61,0.00,CLR,,0.00,WeatherDisplay:10.37,2013-01-16 10:48:00,
2013-01-16 04:53:00,33.0,21.4,30.27,NW,306,0.0,0.0,62,0.00,CLR,,0.00,WeatherDisplay:10.37,2013-01-16 10:53:00,
2013-01-16 04:58:00,32.6,21.0,30.27,NW,306,0.0,0.0,62,0.00,CLR,,0.00,WeatherDisplay:10.37,2013-01-16 10:58:00,
2013-01-16 05:03:00,32.4,21.6,30.27,NW,306,0.0,0.0,64,0.00,CLR,,0.00,WeatherDisplay:10.37,2013-01-16 11:03:00,
2013-01-16 05:08:00,31.9,21.5,30.27,NW,306,0.0,0.0,65,0.00,CLR,,0.00,WeatherDisplay:10.37,2013-01-16 11:08:00,
2013-01-16 05:13:00,31.6,21.5,30.27,NW,306,0.0,0.0,66,0.00,CLR,,0.00,WeatherDisplay:10.37,2013-01-16 11:13:00,
2013-01-16 05:18:00,31.3,21.3,30.27,NW,306,0.0,0.0,66,0.00,CLR,,0.00,WeatherDisplay:10.37,2013-01-16 11:18:00,
2013-01-16 05:23:00,31.0,21.3,30.27,NW,306,0.0,0.0,67,0.00,CLR,,0.00,WeatherDisplay:10.37,2013-01-16 11:23:00,
2013-01-16 05:28:00,30.7,20.7,30.27,NW,306,0.0,0.0,66,0.00,CLR,,0.00,WeatherDisplay:10.37,2013-01-16 11:28:00,
2013-01-16 05:33:00,30.5,20.8,30.27,NW,306,0.0,0.0,67,0.00,CLR,,0.00,WeatherDisplay:10.37,2013-01-16 11:33:00,
2013-01-16 05:38:00,30.3,21.0,30.27,NW,306,0.0,0.0,68,0.00,CLR,,0.00,WeatherDisplay:10.37,2013-01-16 11:38:00,
2013-01-16 05:43:00,30.0,20.7,30.28,NW,306,0.0,0.0,68,0.00,CLR,,0.00,WeatherDisplay:10.37,2013-01-16 11:43:00,
2013-01-16 05:48:00,29.7,20.8,30.28,NW,306,0.0,0.0,69,0.00,CLR,,0.00,WeatherDisplay:10.37,2013-01-16 11:48:00,
2013-01-16 05:53:00,29.4,20.8,30.28,NW,306,0.0,0.0,70,0.00,CLR,,0.00,WeatherDisplay:10.37,2013-01-16 11:53:00,
2013-01-16 05:58:00,29.2,20.6,30.28,NW,306,0.0,0.0,70,0.00,CLR,,0.00,WeatherDisplay:10.37,2013-01-16 11:58:00,
2013-01-16 06:03:00,29.0,20.8,30.28,NW,306,0.0,0.0,71,0.00,CLR,,0.00,WeatherDisplay:10.37,2013-01-16 12:03:00,
2013-01-16 06:08:00,28.7,20.8,30.28,NW,306,0.0,0.0,72,0.00,CLR,,0.00,WeatherDisplay:10.37,2013-01-16 12:08:00,
2013-01-16 06:13:00,28.5,20.6,30.28,NW,306,0.0,0.0,72,0.00,CLR,,0.00,WeatherDisplay:10.37,2013-01-16 12:13:00,
2013-01-16 06:18:00,28.2,20.7,30.28,NW,306,0.0,0.0,73,0.00,CLR,,0.00,WeatherDisplay:10.37,2013-01-16 12:18:00,
2013-01-16 06:23:00,28.0,20.5,30.29,NW,306,0.0,0.0,73,0.00,CLR,,0.00,WeatherDisplay:10.37,2013-01-16 12:23:00,
2013-01-16 06:28:00,27.8,20.6,30.28,NW,306,0.0,0.0,74,0.00,CLR,,0.00,WeatherDisplay:10.37,2013-01-16 12:28:00,
2013-01-16 06:33:00,27.5,20.6,30.28,NW,306,0.0,0.0,75,0.00,CLR,,0.00,WeatherDisplay:10.37,2013-01-16 12:33:00,
2013-01-16 06:38:00,27.3,20.4,30.29,NW,306,0.0,0.0,75,0.00,CLR,,0.00,WeatherDisplay:10.37,2013-01-16 12:38:00,
2013-01-16 06:43:00,27.2,20.6,30.29,NW,306,0.0,0.0,76,0.00,CLR,,0.00,WeatherDisplay:10.37,2013-01-16 12:43:00,
2013-01-16 06:48:00,27.1,20.5,30.29,NW,306,0.0,0.0,76,0.00,CLR,,0.00,WeatherDisplay:10.37,2013-01-16 12:48:00,
2013-01-16 06:53:00,27.0,20.7,30.29,NW,306,0.0,0.0,77,0.00,CLR,,0.00,WeatherDisplay:10.37,2013-01-16 12:53:00,
2013-01-16 06:58:00,27.0,21.1,30.29,NW,306,0.0,0.0,78,0.00,CLR,,0.00,WeatherDisplay:10.37,2013-01-16 12:58:00,
2013-01-16 07:03:00,27.0,21.1,30.30,NW,306,0.0,0.0,78,0.00,CLR,,0.00,WeatherDisplay:10.37,2013-01-16 13:03:00,
2013-01-16 07:08:00,26.9,21.0,30.30,NW,306,0.0,0.0,78,0.00,CLR,,0.00,WeatherDisplay:10.37,2013-01-16 13:08:00,
2013-01-16 07:13:00,26.8,20.9,30.30,NW,306,0.0,0.0,78,0.00,CLR,,0.00,WeatherDisplay:10.37,2013-01-16 13:13:00,
2013-01-16 07:18:00,26.7,21.1,30.30,NW,306,0.0,0.0,79,0.00,CLR,,0.00,WeatherDisplay:10.37,2013-01-16 13:18:00,
2013-01-16 07:23:00,26.6,21.0,30.30,NW,306,0.0,0.0,79,0.00,CLR,,0.00,WeatherDisplay:10.37,2013-01-16 13:23:00,
2013-01-16 07:28:00,26.5,20.9,30.30,NW,306,0.0,0.0,79,0.00,CLR,,0.00,WeatherDisplay:10.37,2013-01-16 13:28:00,
2013-01-16 07:33:00,26.3,20.7,30.30,NW,306,0.0,0.0,79,0.00,CLR,,0.00,WeatherDisplay:10.37,2013-01-16 13:33:00,
2013-01-16 07:38:00,26.2,20.9,30.31,NW,306,0.0,0.0,80,0.00,CLR,,0.00,WeatherDisplay:10.37,2013-01-16 13:38:00,
2013-01-16 07:43:00,26.1,20.8,30.30,NW,306,0.0,0.0,80,0.00,CLR,,0.00,WeatherDisplay:10.37,2013-01-16 13:43:00,
2013-01-16 07:48:00,26.0,20.7,30.31,NW,306,0.0,0.0,80,0.00,CLR,,0.00,WeatherDisplay:10.37,2013-01-16 13:48:00,
2013-01-16 07:53:00,26.0,20.7,30.31,NW,306,0.0,0.0,80,0.00,CLR,,0.00,WeatherDisplay:10.37,2013-01-16 13:53:00,
2013-01-16 07:58:00,25.9,20.9,30.31,NW,306,0.0,0.0,81,0.00,CLR,,0.00,WeatherDisplay:10.37,2013-01-16 13:58:00,
2013-01-16 08:03:00,26.0,21.0,30.31,NW,306,0.0,0.0,81,0.00,CLR,,0.00,WeatherDisplay:10.37,2013-01-16 14:03:00,
2013-01-16 08:08:00,26.1,21.4,30.32,NW,306,0.0,0.0,82,0.00,CLR,,0.00,WeatherDisplay:10.37,2013-01-16 14:08:00,
2013-01-16 08:13:00,26.1,21.6,30.32,NW,306,0.0,0.0,83,0.00,CLR,,0.00,WeatherDisplay:10.37,2013-01-16 14:13:00,
2013-01-16 08:18:00,26.3,21.8,30.32,NW,306,0.0,0.0,83,0.00,CLR,,0.00,WeatherDisplay:10.37,2013-01-16 14:18:00,
2013-01-16 08:23:00,26.4,22.2,30.32,NW,306,0.0,0.0,84,0.00,CLR,,0.00,WeatherDisplay:10.37,2013-01-16 14:23:00,
2013-01-16 08:28:00,26.6,22.4,30.32,NW,306,0.0,0.0,84,0.00,CLR,,0.00,WeatherDisplay:10.37,2013-01-16 14:28:00,
2013-01-16 08:33:00,26.9,22.7,30.33,NW,306,0.0,0.0,84,0.00,CLR,,0.00,WeatherDisplay:10.37,2013-01-16 14:33:00,
2013-01-16 08:38:00,27.2,22.7,30.33,WNW,302,1.5,2.3,83,0.00,CLR,,0.00,WeatherDisplay:10.37,2013-01-16 14:38:00,
2013-01-16 08:43:00,27.9,22.8,30.33,WNW,292,0.3,3.0,81,0.00,CLR,,0.00,WeatherDisplay:10.37,2013-01-16 14:43:00,
2013-01-16 08:48:00,28.9,22.9,30.34,NW,324,1.9,3.5,78,0.00,CLR,,0.00,WeatherDisplay:10.37,2013-01-16 14:48:00,
2013-01-16 08:53:00,30.0,22.7,30.34,NNW,346,0.9,5.0,74,0.00,CLR,,0.00,WeatherDisplay:10.37,2013-01-16 14:53:00,
2013-01-16 08:58:00,31.3,22.6,30.34,WNW,294,1.9,4.6,70,0.00,CLR,,0.00,WeatherDisplay:10.37,2013-01-16 14:58:00,
2013-01-16 09:03:00,32.3,22.6,30.33,NNW,337,1.1,3.0,67,0.00,CLR,,0.00,WeatherDisplay:10.37,2013-01-16 15:03:00,
2013-01-16 09:08:00,33.4,22.1,30.33,NW,307,1.8,4.0,63,0.00,CLR,,0.00,WeatherDisplay:10.37,2013-01-16 15:08:00,
2013-01-16 09:13:00,34.1,22.4,30.33,NW,304,2.2,3.5,62,0.00,CLR,,0.00,WeatherDisplay:10.37,2013-01-16 15:13:00,
2013-01-16 09:18:00,34.7,22.2,30.33,WNW,295,0.9,4.0,60,0.00,CLR,,0.00,WeatherDisplay:10.37,2013-01-16 15:18:00,
2013-01-16 09:23:00,35.4,22.5,30.33,WNW,292,0.2,2.0,59,0.00,CLR,,0.00,WeatherDisplay:10.37,2013-01-16 15:23:00,
2013-01-16 09:28:00,35.9,22.5,30.33,West,279,2.2,3.5,58,0.00,CLR,,0.00,WeatherDisplay:10.37,2013-01-16 15:28:00,
2013-01-16 09:33:00,36.5,22.7,30.33,WNW,286,1.5,2.0,57,0.00,CLR,,0.00,WeatherDisplay:10.37,2013-01-16 15:33:00,
2013-01-16 09:38:00,37.2,22.5,30.33,West,277,2.1,3.5,55,0.00,CLR,,0.00,WeatherDisplay:10.37,2013-01-16 15:38:00,
2013-01-16 09:43:00,37.9,22.7,30.33,NNW,328,2.2,4.6,54,0.00,CLR,,0.00,WeatherDisplay:10.37,2013-01-16 15:43:00,
2013-01-16 09:48:00,38.5,23.3,30.33,WNW,300,1.8,4.0,54,0.00,CLR,,0.00,WeatherDisplay:10.37,2013-01-16 15:48:00,
2013-01-16 09:53:00,39.1,23.4,30.33,WSW,242,3.1,4.6,53,0.00,CLR,,0.00,WeatherDisplay:10.37,2013-01-16 15:53:00,
2013-01-16 09:58:00,39.7,23.0,30.34,NW,311,3.9,9.2,51,0.00,CLR,,0.00,WeatherDisplay:10.37,2013-01-16 15:58:00,
2013-01-16 10:03:00,40.5,22.8,30.34,West,281,2.2,10.4,49,0.00,CLR,,0.00,WeatherDisplay:10.37,2013-01-16 16:03:00,
2013-01-16 10:08:00,41.0,23.3,30.34,NW,309,4.1,4.1,49,0.00,CLR,,0.00,WeatherDisplay:10.37,2013-01-16 16:08:00,
2013-01-16 10:13:00,41.5,23.2,30.33,NNW,336,2.7,4.0,48,0.00,CLR,,0.00,WeatherDisplay:10.37,2013-01-16 16:13:00,
2013-01-16 10:18:00,41.8,23.0,30.33,WNW,302,3.4,4.6,47,0.00,CLR,,0.00,WeatherDisplay:10.37,2013-01-16 16:18:00,
2013-01-16 10:23:00,42.2,23.4,30.33,WNW,295,4.3,6.0,47,0.00,CLR,,0.00,WeatherDisplay:10.37,2013-01-16 16:23:00,
2013-01-16 10:28:00,42.5,23.2,30.33,NW,306,3.3,5.8,46,0.00,CLR,,0.00,WeatherDisplay:10.37,2013-01-16 16:28:00,
2013-01-16 10:33:00,42.9,23.5,30.33,NNW,340,3.4,3.5,46,0.00,CLR,,0.00,WeatherDisplay:10.37,2013-01-16 16:33:00,
2013-01-16 10:38:00,43.4,24.0,30.33,West,279,4.6,8.1,46,0.00,CLR,,0.00,WeatherDisplay:10.37,2013-01-16 16:38:00,
2013-01-16 10:43:00,43.8,23.8,30.32,NNW,328,3.2,8.1,45,0.00,CLR,,0.00,WeatherDisplay:10.37,2013-01-16 16:43:00,
2013-01-16 10:48:00,44.1,23.6,30.32,West,273,2.7,6.9,44,0.00,CLR,,0.00,WeatherDisplay:10.37,2013-01-16 16:48:00,
2013-01-16 10:53:00,44.3,23.7,30.31,NW,307,3.4,9.2,44,0.00,CLR,,0.00,WeatherDisplay:10.37,2013-01-16 16:53:00,
2013-01-16 10:58:00,44.6,23.5,30.31,North,355,4.2,8.1,43,0.00,CLR,,0.00,WeatherDisplay:10.37,2013-01-16 16:58:00,
2013-01-16 11:03:00,44.9,23.7,30.31,WSW,238,1.7,3.5,43,0.00,CLR,,0.00,WeatherDisplay:10.37,2013-01-16 17:03:00,
2013-01-16 11:08:00,45.3,24.1,30.30,North,5,3.5,6.9,43,0.00,CLR,,0.00,WeatherDisplay:10.37,2013-01-16 17:08:00,
2013-01-16 11:13:00,45.7,23.9,30.30,North,5,3.0,5.0,42,0.00,CLR,,0.00,WeatherDisplay:10.37,2013-01-16 17:13:00,
2013-01-16 11:18:00,46.0,24.2,30.29,NW,305,3.2,4.6,42,0.00,CLR,,0.00,WeatherDisplay:10.37,2013-01-16 17:18:00,
2013-01-16 11:23:00,46.1,24.3,30.29,WSW,248,2.1,5.8,42,0.00,CLR,,0.00,WeatherDisplay:10.37,2013-01-16 17:23:00,
2013-01-16 11:28:00,46.3,23.9,30.29,West,267,2.5,6.9,41,0.00,CLR,,0.00,WeatherDisplay:10.37,2013-01-16 17:28:00,
2013-01-16 11:33:00,46.5,24.6,30.28,WSW,241,5.7,5.8,42,0.00,CLR,,0.00,WeatherDisplay:10.37,2013-01-16 17:33:00,
2013-01-16 11:38:00,46.7,24.2,30.28,WSW,250,5.4,8.1,41,0.00,CLR,,0.00,WeatherDisplay:10.37,2013-01-16 17:38:00,
2013-01-16 11:43:00,47.0,23.9,30.28,NW,313,3.3,4.0,40,0.00,CLR,,0.00,WeatherDisplay:10.37,2013-01-16 17:43:00,
2013-01-16 11:48:00,47.2,24.1,30.28,NW,318,2.6,5.8,40,0.00,CLR,,0.00,WeatherDisplay:10.37,2013-01-16 17:48:00,
2013-01-16 11:53:00,47.4,24.3,30.27,West,269,3.0,4.6,40,0.00,CLR,,0.00,WeatherDisplay:10.37,2013-01-16 17:53:00,
2013-01-16 11:58:00,47.7,23.3,30.27,WNW,301,4.8,8.1,38,0.00,CLR,,0.00,WeatherDisplay:10.37,2013-01-16 17:58:00,
2013-01-16 12:03:00,47.7,23.3,30.26,WSW,255,4.5,12.7,38,0.00,CLR,,0.00,WeatherDisplay:10.37,2013-01-16 18:03:00,
2013-01-16 12:08:00,47.7,23.3,30.26,WNW,299,4.8,6.9,38,0.00,CLR,,0.00,WeatherDisplay:10.37,2013-01-16 18:08:00,
2013-01-16 12:13:00,47.8,22.8,30.25,West,263,4.1,6.9,37,0.00,CLR,,0.00,WeatherDisplay:10.37,2013-01-16 18:13:00,
2013-01-16 12:18:00,48.0,23.6,30.25,West,263,4.0,6.9,38,0.00,CLR,,0.00,WeatherDisplay:10.37,2013-01-16 18:18:00,
2013-01-16 12:23:00,48.3,23.2,30.25,WNW,297,4.9,9.2,37,0.00,CLR,,0.00,WeatherDisplay:10.37,2013-01-16 18:23:00,
2013-01-16 12:28:00,48.4,23.3,30.25,NNW,336,6.5,7.0,37,0.00,CLR,,0.00,WeatherDisplay:10.37,2013-01-16 18:28:00,
2013-01-16 12:33:00,48.6,22.1,30.25,NNW,327,3.5,8.1,35,0.00,CLR,,0.00,WeatherDisplay:10.37,2013-01-16 18:33:00,
2013-01-16 12:38:00,48.7,22.2,30.24,West,271,3.2,4.6,35,0.00,CLR,,0.00,WeatherDisplay:10.37,2013-01-16 18:38:00,
2013-01-16 12:43:00,48.9,23.1,30.24,West,263,3.8,8.0,36,0.00,CLR,,0.00,WeatherDisplay:10.37,2013-01-16 18:43:00,
2013-01-16 12:48:00,49.1,22.6,30.24,NNW,331,4.3,11.5,35,0.00,CLR,,0.00,WeatherDisplay:10.37,2013-01-16 18:48:00,
2013-01-16 12:53:00,49.3,22.1,30.24,WNW,303,4.9,7.0,34,0.00,CLR,,0.00,WeatherDisplay:10.37,2013-01-16 18:53:00,
2013-01-16 12:58:00,49.4,21.5,30.23,WNW,301,7.7,13.8,33,0.00,CLR,,0.00,WeatherDisplay:10.37,2013-01-16 18:58:00,
2013-01-16 13:03:00,49.8,22.5,30.23,WNW,303,5.4,5.4,34,0.00,CLR,,0.00,WeatherDisplay:10.37,2013-01-16 19:03:00,
2013-01-16 13:08:00,49.9,21.9,30.23,NW,306,6.1,10.4,33,0.00,CLR,,0.00,WeatherDisplay:10.37,2013-01-16 19:08:00,
2013-01-16 13:13:00,50.0,20.5,30.23,NW,304,5.4,11.5,31,0.00,CLR,,0.00,WeatherDisplay:10.37,2013-01-16 19:13:00,
2013-01-16 13:18:00,50.1,21.3,30.22,WNW,298,6.8,13.8,32,0.00,CLR,,0.00,WeatherDisplay:10.37,2013-01-16 19:18:00,
2013-01-16 13:23:00,50.3,22.3,30.22,WNW,286,2.0,7.0,33,0.00,CLR,,0.00,WeatherDisplay:10.37,2013-01-16 19:23:00,
2013-01-16 13:28:00,50.5,21.7,30.22,NW,316,4.1,5.8,32,0.00,CLR,,0.00,WeatherDisplay:10.37,2013-01-16 19:28:00,
2013-01-16 13:33:00,50.8,21.2,30.21,WNW,298,4.8,9.2,31,0.00,CLR,,0.00,WeatherDisplay:10.37,2013-01-16 19:33:00,
2013-01-16 13:38:00,51.0,22.1,30.21,NW,321,2.5,6.9,32,0.00,CLR,,0.00,WeatherDisplay:10.37,2013-01-16 19:38:00,
2013-01-16 13:43:00,51.3,21.6,30.20,NW,312,2.6,6.9,31,0.00,CLR,,0.00,WeatherDisplay:10.37,2013-01-16 19:43:00,
2013-01-16 13:48:00,51.7,22.0,30.20,West,281,5.1,5.8,31,0.00,CLR,,0.00,WeatherDisplay:10.37,2013-01-16 19:48:00,
2013-01-16 13:53:00,51.9,21.4,30.20,WSW,238,4.8,8.1,30,0.00,CLR,,0.00,WeatherDisplay:10.37,2013-01-16 19:53:00,
2013-01-16 13:58:00,51.9,21.4,30.20,NW,317,2.4,5.8,30,0.00,CLR,,0.00,WeatherDisplay:10.37,2013-01-16 19:58:00,
2013-01-16 14:03:00,52.1,23.1,30.19,West,280,1.4,4.6,32,0.00,CLR,,0.00,WeatherDisplay:10.37,2013-01-16 20:03:00,
2013-01-16 14:08:00,52.4,21.8,30.19,NNE,13,2.7,4.6,30,0.00,CLR,,0.00,WeatherDisplay:10.37,2013-01-16 20:08:00,
2013-01-16 14:13:00,52.6,22.0,30.19,North,350,2.1,3.5,30,0.00,CLR,,0.00,WeatherDisplay:10.37,2013-01-16 20:13:00,
2013-01-16 14:18:00,52.8,22.2,30.19,NW,316,2.4,8.1,30,0.00,CLR,,0.00,WeatherDisplay:10.37,2013-01-16 20:18:00,
2013-01-16 14:23:00,53.0,21.6,30.19,NW,315,4.0,8.1,29,0.00,CLR,,0.00,WeatherDisplay:10.37,2013-01-16 20:23:00,
2013-01-16 14:28:00,53.3,22.6,30.18,NNW,344,2.8,5.0,30,0.00,CLR,,0.00,WeatherDisplay:10.37,2013-01-16 20:28:00,
2013-01-16 14:33:00,53.2,21.7,30.18,NNW,343,4.1,8.1,29,0.00,CLR,,0.00,WeatherDisplay:10.37,2013-01-16 20:33:00,
2013-01-16 14:38:00,53.2,21.7,30.17,SW,217,5.3,8.1,29,0.00,CLR,,0.00,WeatherDisplay:10.37,2013-01-16 20:38:00,
2013-01-16 14:43:00,53.3,21.0,30.18,NW,309,3.8,11.5,28,0.00,CLR,,0.00,WeatherDisplay:10.37,2013-01-16 20:43:00,
2013-01-16 14:48:00,53.5,17.5,30.18,WSW,248,5.3,15.0,24,0.00,CLR,,0.00,WeatherDisplay:10.37,2013-01-16 20:48:00,
2013-01-16 14:53:00,53.6,18.6,30.18,NNW,327,5.7,5.7,25,0.00,CLR,,0.00,WeatherDisplay:10.37,2013-01-16 20:53:00,
2013-01-16 14:58:00,53.7,17.7,30.18,NNW,343,5.4,10.4,24,0.00,CLR,,0.00,WeatherDisplay:10.37,2013-01-16 20:58:00,
2013-01-16 15:03:00,53.6,18.6,30.18,West,271,4.2,6.0,25,0.00,CLR,,0.00,WeatherDisplay:10.37,2013-01-16 21:03:00,
2013-01-16 15:08:00,54.0,18.0,30.18,WNW,303,3.4,7.0,24,0.00,CLR,,0.00,WeatherDisplay:10.37,2013-01-16 21:08:00,
2013-01-16 15:13:00,54.2,17.1,30.17,SW,235,4.8,11.5,23,0.00,CLR,,0.00,WeatherDisplay:10.37,2013-01-16 21:13:00,
2013-01-16 15:18:00,54.2,17.1,30.17,NW,306,2.4,8.1,23,0.00,CLR,,0.00,WeatherDisplay:10.37,2013-01-16 21:18:00,
2013-01-16 15:23:00,54.3,18.2,30.17,NW,322,2.3,5.8,24,0.00,CLR,,0.00,WeatherDisplay:10.37,2013-01-16 21:23:00,
2013-01-16 15:28:00,54.3,18.2,30.17,NW,317,2.6,6.9,24,0.00,CLR,,0.00,WeatherDisplay:10.37,2013-01-16 21:28:00,
2013-01-16 15:33:00,54.2,16.1,30.17,North,350,3.1,10.4,22,0.00,CLR,,0.00,WeatherDisplay:10.37,2013-01-16 21:33:00,
2013-01-16 15:38:00,54.2,17.1,30.17,NNW,336,4.2,8.1,23,0.00,CLR,,0.00,WeatherDisplay:10.37,2013-01-16 21:38:00,
2013-01-16 15:43:00,53.9,16.9,30.18,WNW,299,6.6,15.0,23,0.00,CLR,,0.00,WeatherDisplay:10.37,2013-01-16 21:43:00,
2013-01-16 15:48:00,53.7,17.7,30.18,WSW,255,3.2,8.1,24,0.00,CLR,,0.00,WeatherDisplay:10.37,2013-01-16 21:48:00,
2013-01-16 15:53:00,53.7,15.7,30.18,NW,324,5.9,8.1,22,0.00,CLR,,0.00,WeatherDisplay:10.37,2013-01-16 21:53:00,
2013-01-16 15:58:00,53.5,15.5,30.18,NW,313,4.2,6.9,22,0.00,CLR,,0.00,WeatherDisplay:10.37,2013-01-16 21:58:00,
2013-01-16 16:03:00,53.5,16.6,30.18,NW,316,2.3,6.9,23,0.00,CLR,,0.00,WeatherDisplay:10.37,2013-01-16 22:03:00,
2013-01-16 16:08:00,53.7,17.7,30.18,West,272,2.0,3.5,24,0.00,CLR,,0.00,WeatherDisplay:10.37,2013-01-16 22:08:00,
2013-01-16 16:13:00,53.7,16.7,30.18,NNW,329,1.8,4.6,23,0.00,CLR,,0.00,WeatherDisplay:10.37,2013-01-16 22:13:00,
2013-01-16 16:18:00,53.4,15.4,30.18,NW,307,2.4,6.9,22,0.00,CLR,,0.00,WeatherDisplay:10.37,2013-01-16 22:18:00,
2013-01-16 16:23:00,53.1,16.2,30.18,NW,313,3.7,6.9,23,0.00,CLR,,0.00,WeatherDisplay:10.37,2013-01-16 22:23:00,
2013-01-16 16:28:00,52.9,16.1,30.18,NNW,336,2.8,8.1,23,0.00,CLR,,0.00,WeatherDisplay:10.37,2013-01-16 22:28:00,
2013-01-16 16:33:00,52.7,16.9,30.19,NNW,329,4.7,6.9,24,0.00,CLR,,0.00,WeatherDisplay:10.37,2013-01-16 22:33:00,
2013-01-16 16:38:00,52.4,16.6,30.19,NW,323,2.6,5.8,24,0.00,CLR,,0.00,WeatherDisplay:10.37,2013-01-16 22:38:00,
2013-01-16 16:43:00,52.1,17.3,30.19,NW,317,3.6,9.2,25,0.00,CLR,,0.00,WeatherDisplay:10.37,2013-01-16 22:43:00,
2013-01-16 16:48:00,51.9,18.0,30.19,North,5,3.1,3.5,26,0.00,CLR,,0.00,WeatherDisplay:10.37,2013-01-16 22:48:00,
2013-01-16 16:53:00,51.7,17.0,30.19,NNW,336,2.2,5.8,25,0.00,CLR,,0.00,WeatherDisplay:10.37,2013-01-16 22:53:00,
2013-01-16 16:58:00,51.4,16.7,30.19,NW,311,3.4,5.8,25,0.00,CLR,,0.00,WeatherDisplay:10.37,2013-01-16 22:58:00,
2013-01-16 17:03:00,51.3,17.5,30.19,NW,326,1.7,4.0,26,0.00,CLR,,0.00,WeatherDisplay:10.37,2013-01-16 23:03:00,
2013-01-16 17:08:00,51.2,17.4,30.20,NW,311,2.9,8.1,26,0.00,CLR,,0.00,WeatherDisplay:10.37,2013-01-16 23:08:00,
2013-01-16 17:13:00,51.0,16.4,30.20,WNW,286,2.5,3.5,25,0.00,CLR,,0.00,WeatherDisplay:10.37,2013-01-16 23:13:00,
2013-01-16 17:18:00,50.9,16.3,30.20,NW,305,2.5,5.8,25,0.00,CLR,,0.00,WeatherDisplay:10.37,2013-01-16 23:18:00,
2013-01-16 17:23:00,50.8,17.1,30.20,NW,310,2.7,3.5,26,0.00,CLR,,0.00,WeatherDisplay:10.37,2013-01-16 23:23:00,
2013-01-16 17:28:00,50.6,16.9,30.20,NW,308,0.3,3.5,26,0.00,CLR,,0.00,WeatherDisplay:10.37,2013-01-16 23:28:00,
2013-01-16 17:33:00,50.5,17.7,30.21,WNW,300,0.2,0.0,27,0.00,CLR,,0.00,WeatherDisplay:10.37,2013-01-16 23:33:00,
2013-01-16 17:38:00,50.3,18.4,30.21,WNW,300,0.0,0.0,28,0.00,CLR,,0.00,WeatherDisplay:10.37,2013-01-16 23:38:00,
2013-01-16 17:43:00,50.1,18.2,30.21,WNW,300,0.1,1.2,28,0.00,CLR,,0.00,WeatherDisplay:10.37,2013-01-16 23:43:00,
2013-01-16 17:48:00,49.9,18.0,30.21,WNW,300,0.0,1.2,28,0.00,CLR,,0.00,WeatherDisplay:10.37,2013-01-16 23:48:00,
2013-01-16 17:53:00,49.6,17.8,30.21,WNW,300,0.0,0.0,28,0.00,CLR,,0.00,WeatherDisplay:10.37,2013-01-16 23:53:00,
2013-01-16 17:58:00,49.5,20.1,30.21,WNW,300,0.0,0.0,31,0.00,CLR,,0.00,WeatherDisplay:10.37,2013-01-16 23:58:00,
2013-01-16 18:03:00,49.1,21.9,30.21,WNW,300,0.0,0.0,34,0.00,CLR,,0.00,WeatherDisplay:10.37,2013-01-17 00:03:00,
2013-01-16 18:08:00,48.7,21.5,30.22,WNW,300,0.0,0.0,34,0.00,CLR,,0.00,WeatherDisplay:10.37,2013-01-17 00:08:00,
2013-01-16 18:13:00,48.3,21.9,30.22,WNW,300,0.0,0.0,35,0.00,CLR,,0.00,WeatherDisplay:10.37,2013-01-17 00:13:00,
2013-01-16 18:18:00,47.8,22.1,30.22,WNW,300,0.0,0.0,36,0.00,CLR,,0.00,WeatherDisplay:10.37,2013-01-17 00:18:00,
2013-01-16 18:23:00,47.2,22.2,30.22,WNW,300,0.0,0.0,37,0.00,CLR,,0.00,WeatherDisplay:10.37,2013-01-17 00:23:00,
2013-01-16 18:28:00,46.5,22.8,30.22,WNW,300,0.0,0.0,39,0.00,CLR,,0.00,WeatherDisplay:10.37,2013-01-17 00:28:00,
2013-01-16 18:33:00,45.8,23.4,30.22,WNW,300,0.0,0.0,41,0.00,CLR,,0.00,WeatherDisplay:10.37,2013-01-17 00:33:00,
2013-01-16 18:38:00,44.9,23.2,30.22,WNW,300,0.0,0.0,42,0.00,CLR,,0.00,WeatherDisplay:10.37,2013-01-17 00:38:00,
2013-01-16 18:43:00,44.1,23.0,30.22,WNW,300,0.0,0.0,43,0.00,CLR,,0.00,WeatherDisplay:10.37,2013-01-17 00:43:00,
2013-01-16 18:48:00,43.4,23.4,30.22,WNW,300,0.0,0.0,45,0.00,CLR,,0.00,WeatherDisplay:10.37,2013-01-17 00:48:00,
2013-01-16 18:53:00,42.4,23.1,30.23,WNW,300,0.0,0.0,46,0.00,CLR,,0.00,WeatherDisplay:10.37,2013-01-17 00:53:00,
2013-01-16 18:58:00,41.6,22.8,30.23,WNW,300,0.0,0.0,47,0.00,CLR,,0.00,WeatherDisplay:10.37,2013-01-17 00:58:00,
2013-01-16 19:03:00,41.0,22.8,30.23,WNW,300,0.0,0.0,48,0.00,CLR,,0.00,WeatherDisplay:10.37,2013-01-17 01:03:00,
2013-01-16 19:08:00,40.6,22.9,30.23,WNW,300,0.0,0.0,49,0.00,CLR,,0.00,WeatherDisplay:10.37,2013-01-17 01:08:00,
2013-01-16 19:13:00,40.2,22.5,30.24,WNW,300,0.0,0.0,49,0.00,CLR,,0.00,WeatherDisplay:10.37,2013-01-17 01:13:00,
2013-01-16 19:18:00,39.5,22.8,30.24,WNW,300,0.0,0.0,51,0.00,CLR,,0.00,WeatherDisplay:10.37,2013-01-17 01:18:00,
2013-01-16 19:23:00,39.0,22.4,30.24,WNW,300,0.0,0.0,51,0.00,CLR,,0.00,WeatherDisplay:10.37,2013-01-17 01:23:00,
2013-01-16 19:28:00,38.6,22.5,30.24,WNW,300,0.0,0.0,52,0.00,CLR,,0.00,WeatherDisplay:10.37,2013-01-17 01:28:00,
2013-01-16 19:33:00,38.1,22.9,30.24,WNW,300,0.0,0.0,54,0.00,CLR,,0.00,WeatherDisplay:10.37,2013-01-17 01:33:00,
2013-01-16 19:38:00,37.7,23.0,30.24,WNW,300,0.0,0.0,55,0.00,CLR,,0.00,WeatherDisplay:10.37,2013-01-17 01:38:00,
2013-01-16 19:43:00,37.2,22.9,30.24,WNW,300,0.0,0.0,56,0.00,CLR,,0.00,WeatherDisplay:10.37,2013-01-17 01:43:00,
2013-01-16 19:48:00,36.8,22.6,30.24,WNW,300,0.0,0.0,56,0.00,CLR,,0.00,WeatherDisplay:10.37,2013-01-17 01:48:00,
2013-01-16 19:53:00,36.5,22.7,30.25,WNW,300,0.0,0.0,57,0.00,CLR,,0.00,WeatherDisplay:10.37,2013-01-17 01:53:00,
2013-01-16 19:58:00,36.2,22.8,30.25,WNW,300,0.0,0.0,58,0.00,CLR,,0.00,WeatherDisplay:10.37,2013-01-17 01:58:00,
2013-01-16 20:03:00,35.9,22.5,30.25,WNW,300,0.0,0.0,58,0.00,CLR,,0.00,WeatherDisplay:10.37,2013-01-17 02:03:00,
2013-01-16 20:08:00,35.7,22.8,30.25,WNW,300,0.0,0.0,59,0.00,CLR,,0.00,WeatherDisplay:10.37,2013-01-17 02:08:00,
2013-01-16 20:13:00,35.4,23.3,30.25,WNW,300,0.0,0.0,61,0.00,CLR,,0.00,WeatherDisplay:10.37,2013-01-17 02:13:00,
2013-01-16 20:18:00,35.1,23.0,30.25,WNW,300,0.0,0.0,61,0.00,CLR,,0.00,WeatherDisplay:10.37,2013-01-17 02:18:00,
2013-01-16 20:23:00,34.9,22.8,30.25,WNW,300,0.0,0.0,61,0.00,CLR,,0.00,WeatherDisplay:10.37,2013-01-17 02:23:00,
2013-01-16 20:28:00,34.7,22.6,30.25,WNW,300,0.0,0.0,61,0.00,CLR,,0.00,WeatherDisplay:10.37,2013-01-17 02:28:00,
2013-01-16 20:33:00,34.6,22.9,30.25,WNW,300,0.0,0.0,62,0.00,CLR,,0.00,WeatherDisplay:10.37,2013-01-17 02:33:00,
2013-01-16 20:38:00,34.3,23.0,30.26,WNW,300,0.0,0.0,63,0.00,CLR,,0.00,WeatherDisplay:10.37,2013-01-17 02:38:00,
2013-01-16 20:43:00,34.2,22.5,30.26,WNW,300,0.0,0.0,62,0.00,CLR,,0.00,WeatherDisplay:10.37,2013-01-17 02:43:00,
2013-01-16 20:48:00,33.9,23.0,30.26,WNW,300,0.0,0.0,64,0.00,CLR,,0.00,WeatherDisplay:10.37,2013-01-17 02:48:00,
2013-01-16 20:53:00,33.7,23.2,30.26,WNW,300,0.0,0.0,65,0.00,CLR,,0.00,WeatherDisplay:10.37,2013-01-17 02:53:00,
2013-01-16 20:58:00,33.5,23.4,30.26,WNW,300,0.0,0.0,66,0.00,CLR,,0.00,WeatherDisplay:10.37,2013-01-17 02:58:00,
2013-01-16 21:04:00,33.4,23.3,30.26,WNW,300,0.0,0.0,66,0.00,CLR,,0.00,WeatherDisplay:10.37,2013-01-17 03:04:00,
2013-01-16 21:09:00,33.3,23.5,30.26,WNW,300,0.0,0.0,67,0.00,CLR,,0.00,WeatherDisplay:10.37,2013-01-17 03:09:00,
2013-01-16 21:14:00,33.1,23.3,30.26,WNW,300,0.0,0.0,67,0.00,CLR,,0.00,WeatherDisplay:10.37,2013-01-17 03:14:00,
2013-01-16 21:19:00,33.0,23.2,30.26,WNW,300,0.0,0.0,67,0.00,CLR,,0.00,WeatherDisplay:10.37,2013-01-17 03:19:00,
2013-01-16 21:24:00,33.0,23.2,30.26,WNW,300,0.0,0.0,67,0.00,CLR,,0.00,WeatherDisplay:10.37,2013-01-17 03:24:00,
2013-01-16 21:29:00,33.1,23.3,30.26,WNW,300,0.0,0.0,67,0.00,CLR,,0.00,WeatherDisplay:10.37,2013-01-17 03:29:00,
2013-01-16 21:34:00,33.1,23.3,30.25,WNW,300,0.0,0.0,67,0.00,CLR,,0.00,WeatherDisplay:10.37,2013-01-17 03:34:00,
2013-01-16 21:39:00,33.1,23.3,30.25,WNW,300,0.0,0.0,67,0.00,CLR,,0.00,WeatherDisplay:10.37,2013-01-17 03:39:00,
2013-01-16 21:44:00,33.1,23.3,30.26,WNW,300,0.0,0.0,67,0.00,CLR,,0.00,WeatherDisplay:10.37,2013-01-17 03:44:00,
2013-01-16 21:49:00,33.0,23.2,30.26,WNW,300,0.0,0.0,67,0.00,CLR,,0.00,WeatherDisplay:10.37,2013-01-17 03:49:00,
2013-01-16 21:54:00,33.0,22.9,30.26,WNW,300,0.0,0.0,66,0.00,CLR,,0.00,WeatherDisplay:10.37,2013-01-17 03:54:00,
2013-01-16 21:59:00,33.0,23.2,30.26,WNW,300,0.0,0.0,67,0.00,CLR,,0.00,WeatherDisplay:10.37,2013-01-17 03:59:00,
2013-01-16 22:04:00,32.9,23.1,30.26,WNW,300,0.0,0.0,67,0.00,CLR,,0.00,WeatherDisplay:10.37,2013-01-17 04:04:00,
2013-01-16 22:09:00,32.8,23.0,30.26,WNW,300,0.0,0.0,67,0.00,CLR,,0.00,WeatherDisplay:10.37,2013-01-17 04:09:00,
2013-01-16 22:14:00,32.6,23.6,30.26,WNW,300,0.0,0.0,69,0.00,CLR,,0.00,WeatherDisplay:10.37,2013-01-17 04:14:00,
2013-01-16 22:19:00,32.5,23.1,30.26,WNW,300,0.0,0.0,68,0.00,CLR,,0.00,WeatherDisplay:10.37,2013-01-17 04:19:00,
2013-01-16 22:24:00,32.4,23.0,30.26,WNW,300,0.0,0.0,68,0.00,CLR,,0.00,WeatherDisplay:10.37,2013-01-17 04:24:00,
2013-01-16 22:29:00,32.3,23.3,30.26,WNW,300,0.0,0.0,69,0.00,CLR,,0.00,WeatherDisplay:10.37,2013-01-17 04:29:00,
2013-01-16 22:34:00,32.1,23.1,30.26,WNW,300,0.0,0.0,69,0.00,CLR,,0.00,WeatherDisplay:10.37,2013-01-17 04:34:00,
2013-01-16 22:39:00,32.1,23.1,30.26,WNW,300,0.0,0.0,69,0.00,CLR,,0.00,WeatherDisplay:10.37,2013-01-17 04:39:00,
2013-01-16 22:44:00,32.0,23.0,30.26,WNW,300,0.0,0.0,69,0.00,CLR,,0.00,WeatherDisplay:10.37,2013-01-17 04:44:00,
2013-01-16 22:49:00,31.9,23.2,30.27,WNW,300,0.0,0.0,70,0.00,CLR,,0.00,WeatherDisplay:10.37,2013-01-17 04:49:00,
2013-01-16 22:54:00,31.9,23.2,30.27,WNW,300,0.0,0.0,70,0.00,CLR,,0.00,WeatherDisplay:10.37,2013-01-17 04:54:00,
2013-01-16 22:59:00,31.8,23.1,30.27,WNW,300,0.0,0.0,70,0.00,CLR,,0.00,WeatherDisplay:10.37,2013-01-17 04:59:00,
2013-01-16 23:01:00,31.8,23.1,30.27,WNW,300,0.0,0.0,70,0.00,CLR,,0.00,WeatherDisplay:10.37,2013-01-17 05:01:00,
2013-01-16 23:02:00,31.8,23.1,30.27,WNW,300,0.0,0.0,70,0.00,CLR,,0.00,WeatherDisplay:10.37,2013-01-17 05:02:00,
2013-01-16 23:03:00,31.8,23.1,30.27,WNW,300,0.0,0.0,70,0.00,CLR,,0.00,WeatherDisplay:10.37,2013-01-17 05:03:00,
2013-01-16 23:08:00,31.7,23.0,30.27,WNW,300,0.0,0.0,70,0.00,CLR,,0.00,WeatherDisplay:10.37,2013-01-17 05:08:00,
2013-01-16 23:13:00,31.7,23.4,30.27,WNW,300,0.0,0.0,71,0.00,CLR,,0.00,WeatherDisplay:10.37,2013-01-17 05:13:00,
2013-01-16 23:18:00,31.7,23.4,30.27,WNW,300,0.0,0.0,71,0.00,CLR,,0.00,WeatherDisplay:10.37,2013-01-17 05:18:00,
2013-01-16 23:23:00,31.7,23.4,30.27,WNW,300,0.0,0.0,71,0.00,CLR,,0.00,WeatherDisplay:10.37,2013-01-17 05:23:00,
2013-01-16 23:28:00,31.7,23.4,30.28,WNW,300,0.0,0.0,71,0.00,CLR,,0.00,WeatherDisplay:10.37,2013-01-17 05:28:00,
2013-01-16 23:33:00,31.7,23.4,30.28,WNW,300,0.0,0.0,71,0.00,CLR,,0.00,WeatherDisplay:10.37,2013-01-17 05:33:00,
2013-01-16 23:38:00,31.7,23.4,30.28,WNW,300,0.0,0.0,71,0.00,CLR,,0.00,WeatherDisplay:10.37,2013-01-17 05:38:00,
2013-01-16 23:43:00,31.8,23.5,30.28,WNW,300,0.0,0.0,71,0.00,CLR,,0.00,WeatherDisplay:10.37,2013-01-17 05:43:00,
2013-01-16 23:48:00,31.9,23.6,30.28,WNW,300,0.0,0.0,71,0.00,CLR,,0.00,WeatherDisplay:10.37,2013-01-17 05:48:00,
2013-01-16 23:53:00,32.0,23.3,30.28,WNW,300,0.0,0.0,70,0.00,CLR,,0.00,WeatherDisplay:10.37,2013-01-17 05:53:00,
2013-01-16 23:58:00,31.9,23.2,30.28,WNW,300,0.0,0.0,70,0.00,CLR,,0.00,WeatherDisplay:10.37,2013-01-17 05:58:00,